GW1753 Weather Reports


Display with metric or nautical units.
time (UTC)temp
F
wind
direction
speed
MPH
gust
MPH
rain 1hr
in
rain 24hr
in
rain mn
in
humidity
%
barometer
mb
20260507051302 60 80 1.0 2.0 0.00 0.00 0.00 29 1010.3
20260507050758 60 94 2.0 2.0 0.00 0.00 0.00 29 1010.0
20260507050254 60 107 1.0 2.0 0.00 0.00 0.00 28 1010.0
20260507045751 60 88 1.0 3.0 0.00 0.00 0.00 28 1009.9
20260507045247 60 70 2.0 3.0 0.00 0.00 0.00 28 1010.0
20260507044745 60 79 0.0 0.0 0.00 0.00 0.00 28 1010.3
20260507044241 60 74 0.0 0.0 0.00 0.00 0.00 28 1010.2
20260507043737 60 76 0.0 2.0 0.00 0.00 0.00 29 1009.9
20260507043235 60 73 3.0 4.0 0.00 0.00 0.00 28 1010.0
20260507042731 60 73 2.0 3.0 0.00 0.00 0.00 28 1010.2
20260507042226 61 103 0.0 2.0 0.00 0.00 0.00 29 1010.3
20260507041723 60 70 3.0 3.0 0.00 0.00 0.00 28 1010.0
20260507041220 62 83 0.0 1.0 0.00 0.00 0.00 28 1010.2
20260507040717 63 74 2.0 6.0 0.00 0.00 0.00 26 1010.2
20260507040213 60 54 0.0 0.0 0.00 0.00 0.00 28 1010.4
20260507035709 61 48 0.0 1.0 0.00 0.00 0.00 28 1010.5
20260507035159 61 10 1.0 7.0 0.00 0.00 0.00 28 1010.7
20260507034656 63 27 0.0 9.0 0.00 0.00 0.00 28 1010.6
20260507034153 64 259 0.0 0.0 0.00 0.00 0.00 28 1010.6
20260507033652 61 333 1.0 2.0 0.00 0.00 0.00 29 1010.5
20260507033148 61 14 0.0 0.0 0.00 0.00 0.00 28 1010.5
20260507032646 60 357 0.0 0.0 0.00 0.00 0.00 29 1010.7
20260507032142 59 327 0.0 0.0 0.00 0.00 0.00 30 1010.7
20260507031639 61 262 0.0 1.0 0.00 0.00 0.00 30 1010.6
20260507031135 61 263 0.0 0.0 0.00 0.00 0.00 28 1010.5
20260507030632 63 239 0.0 0.0 0.00 0.00 0.00 28 1010.3
20260507030130 63 141 0.0 0.0 0.00 0.00 0.00 26 1010.0
20260507025627 64 93 0.0 0.0 0.00 0.00 0.00 26 1009.9
20260507025124 64 49 1.0 2.0 0.00 0.00 0.00 25 1009.7
20260507024622 64 57 0.0 2.0 0.00 0.00 0.00 25 1009.9
20260507024119 65 53 1.0 2.0 0.00 0.00 0.00 25 1010.0
20260507023615 65 62 2.0 6.0 0.00 0.00 0.00 25 1009.9
20260507023112 66 91 1.0 6.0 0.00 0.00 0.00 25 1009.8
20260507022609 66 150 0.0 2.0 0.00 0.00 0.00 24 1009.9
20260507022104 67 61 1.0 3.0 0.00 0.00 0.00 25 1009.9
20260507021600 68 197 0.0 0.0 0.00 0.00 0.00 23 1009.7
20260507021056 68 205 0.0 0.0 0.00 0.00 0.00 23 1009.9
20260507020555 67 166 0.0 0.0 0.00 0.00 0.00 23 1009.8
20260507020051 67 156 0.0 0.0 0.00 0.00 0.00 24 1009.6
20260507015549 68 133 0.0 0.0 0.00 0.00 0.00 24 1009.6
20260507015046 68 105 0.0 0.0 0.00 0.00 0.00 23 1009.7
20260507014543 68 39 0.0 0.0 0.00 0.00 0.00 22 1009.8
20260507014039 68 14 0.0 0.0 0.00 0.00 0.00 22 1009.8
20260507013536 68 14 0.0 0.0 0.00 0.00 0.00 22 1010.2
20260507013033 68 14 0.0 0.0 0.00 0.00 0.00 24 1009.9
20260507012530 69 40 0.0 0.0 0.00 0.00 0.00 23 1010.2
20260507012026 69 66 0.0 0.0 0.00 0.00 0.00 22 1010.0
20260507011524 69 71 0.0 0.0 0.00 0.00 0.00 22 1010.0
20260507011019 70 64 0.0 0.0 0.00 0.00 0.00 22 1010.0
20260507010514 70 110 0.0 0.0 0.00 0.00 0.00 22 1009.9
20260507010011 71 41 0.0 0.0 0.00 0.00 0.00 21 1009.8
20260507005508 71 184 0.0 1.0 0.00 0.00 0.00 21 1010.0
20260507005004 72 178 1.0 1.0 0.00 0.00 0.00 20 1009.7
20260507004501 72 59 0.0 2.0 0.00 0.00 0.00 21 1010.3
20260507003959 73 76 3.0 3.0 0.00 0.00 0.00 20 1009.9
20260507003454 72 184 1.0 3.0 0.00 0.00 0.00 21 1009.9
20260507002949 72 127 4.0 7.0 0.00 0.00 0.00 20 1010.2
20260507002446 72 130 4.0 7.0 0.00 0.00 0.00 20 1010.3
20260507001943 73 179 6.0 9.0 0.00 0.00 0.00 20 1010.0
20260507001439 74 204 3.0 4.0 0.00 0.00 0.00 20 1010.0
20260507000937 74 259 0.0 3.0 0.00 0.00 0.00 19 1010.3
20260507000434 74 257 1.0 6.0 0.00 0.00 0.00 20 1010.2
20260506235928 74 261 0.0 1.0 0.00 0.00 0.00 20 1010.2
20260506235426 73 251 0.0 4.0 0.00 0.00 0.00 21 1010.3
20260506234921 73 337 2.0 4.0 0.00 0.00 0.00 20 1010.4
20260506234420 74 303 3.0 6.0 0.00 0.00 0.00 20 1010.6
20260506233917 73 317 0.0 4.0 0.00 0.00 0.00 21 1010.3
20260506233413 72 70 4.0 6.0 0.00 0.00 0.00 20 1010.5
20260506232910 72 165 0.0 3.0 0.00 0.00 0.00 20 1010.7
20260506232406 72 186 2.0 2.0 0.00 0.00 0.00 20 1010.5
20260506231902 72 204 4.0 6.0 0.00 0.00 0.00 20 1010.5
20260506231359 72 240 4.0 9.0 0.00 0.00 0.00 20 1010.7
20260506230857 73 248 0.0 4.0 0.00 0.00 0.00 20 1010.7
20260506230353 72 280 0.0 3.0 0.00 0.00 0.00 20 1010.9
20260506225849 72 46 0.0 6.0 0.00 0.00 0.00 21 1010.8
20260506225347 73 337 1.0 8.0 0.00 0.00 0.00 21 1011.0
20260506224844 73 270 1.0 3.0 0.00 0.00 0.00 20 1011.1
20260506224341 73 247 4.0 7.0 0.00 0.00 0.00 19 1010.9
20260506223837 72 51 0.0 2.0 0.00 0.00 0.00 20 1010.9
20260506223333 72 343 1.0 4.0 0.00 0.00 0.00 20 1011.2
20260506222830 71 275 2.0 4.0 0.00 0.00 0.00 21 1011.4
20260506222325 71 277 4.0 6.0 0.00 0.00 0.00 20 1011.5
20260506221819 71 300 1.0 7.0 0.00 0.00 0.00 21 1011.5
20260506221316 71 320 2.0 6.0 0.00 0.00 0.00 20 1011.7
20260506220814 71 338 3.0 9.0 0.00 0.00 0.00 21 1011.8
20260506220313 71 323 6.0 8.0 0.00 0.00 0.00 20 1011.8
20260506215810 71 275 0.0 7.0 0.00 0.00 0.00 19 1011.8
20260506215306 70 281 7.0 11.0 0.00 0.00 0.00 21 1011.9
20260506214802 70 276 6.0 10.0 0.00 0.00 0.00 20 1012.1
20260506214259 72 289 6.0 9.0 0.00 0.00 0.00 20 1012.2
20260506213757 71 315 5.0 7.0 0.00 0.00 0.00 20 1012.3
20260506213254 72 308 7.0 10.0 0.00 0.00 0.00 20 1012.1
20260506212751 70 263 5.0 8.0 0.00 0.00 0.00 22 1012.3
20260506212247 70 238 4.0 8.0 0.00 0.00 0.00 21 1012.7
20260506211742 70 272 7.0 13.0 0.00 0.00 0.00 21 1012.4
20260506211239 70 284 6.0 9.0 0.00 0.00 0.00 20 1012.4
20260506210736 70 303 4.0 10.0 0.00 0.00 0.00 21 1012.6
20260506210233 69 300 9.0 18.0 0.00 0.00 0.00 22 1012.7
20260506205731 69 312 5.0 11.0 0.00 0.00 0.00 21 1013.0
20260506205226 69 293 7.0 13.0 0.00 0.00 0.00 21 1013.0
20260506204723 69 329 7.0 9.0 0.00 0.00 0.00 22 1012.9
20260506204220 69 343 5.0 7.0 0.00 0.00 0.00 22 1013.0
20260506203718 68 304 4.0 11.0 0.00 0.00 0.00 23 1013.0
20260506203215 68 312 1.0 8.0 0.00 0.00 0.00 23 1013.1
20260506202713 68 247 4.0 8.0 0.00 0.00 0.00 22 1013.1
20260506202208 67 242 3.0 11.0 0.00 0.00 0.00 24 1013.2
20260506201706 66 220 6.0 10.0 0.00 0.00 0.00 24 1013.3
20260506201202 67 250 6.0 15.0 0.00 0.00 0.00 23 1013.4
20260506200659 67 239 8.0 9.0 0.00 0.00 0.00 24 1013.4
20260506200156 65 263 1.0 4.0 0.00 0.00 0.00 24 1013.7
20260506195652 65 256 3.0 8.0 0.00 0.00 0.00 24 1013.8
20260506195148 65 292 3.0 7.0 0.00 0.00 0.00 26 1013.8
20260506194646 65 224 9.0 11.0 0.00 0.00 0.00 25 1014.1
20260506194142 66 275 8.0 15.0 0.00 0.00 0.00 26 1014.1
20260506193640 64 263 3.0 7.0 0.00 0.00 0.00 25 1014.2
20260506193137 64 236 4.0 7.0 0.00 0.00 0.00 24 1014.3
20260506192634 64 245 3.0 7.0 0.00 0.00 0.00 25 1014.4
20260506192130 63 259 6.0 14.0 0.00 0.00 0.00 24 1014.4
20260506191627 64 247 1.0 7.0 0.00 0.00 0.00 24 1014.4
20260506191123 62 229 4.0 6.0 0.00 0.00 0.00 24 1014.6
20260506190621 63 244 2.0 7.0 0.00 0.00 0.00 24 1014.5
20260506190117 63 232 2.0 4.0 0.00 0.00 0.00 25 1015.0
20260506185614 63 253 4.0 8.0 0.00 0.00 0.00 24 1015.0
20260506185110 62 269 3.0 7.0 0.00 0.00 0.00 24 1015.0
20260506184608 62 281 1.0 6.0 0.00 0.00 0.00 23 1015.2
20260506184106 61 259 2.0 6.0 0.00 0.00 0.00 24 1015.3
20260506183601 61 231 1.0 2.0 0.00 0.00 0.00 24 1015.5
20260506183058 60 267 5.0 9.0 0.00 0.00 0.00 24 1015.5
20260506182555 61 194 7.0 11.0 0.00 0.00 0.00 23 1015.6
20260506182052 61 273 11.0 14.0 0.00 0.00 0.00 24 1015.7
20260506181550 59 260 1.0 8.0 0.00 0.00 0.00 26 1015.6
20260506181047 59 225 5.0 10.0 0.00 0.00 0.00 25 1016.1
20260506180543 59 248 7.0 11.0 0.00 0.00 0.00 23 1015.9
20260506180040 58 186 1.0 8.0 0.00 0.00 0.00 23 1016.1
20260506175536 58 311 4.0 7.0 0.00 0.00 0.00 22 1016.3
20260506175033 58 184 5.0 8.0 0.00 0.00 0.00 23 1016.3
20260506174532 57 225 8.0 9.0 0.00 0.00 0.00 23 1016.4
20260506174027 57 234 2.0 8.0 0.00 0.00 0.00 23 1016.4
20260506173525 57 176 4.0 9.0 0.00 0.00 0.00 23 1016.6
20260506173022 57 225 2.0 3.0 0.00 0.00 0.00 24 1016.8
20260506172519 55 240 5.0 9.0 0.00 0.00 0.00 22 1016.8
20260506172015 56 208 0.0 7.0 0.00 0.00 0.00 23 1016.7
20260506171513 57 215 6.0 11.0 0.00 0.00 0.00 24 1016.9
20260506171010 55 244 7.0 10.0 0.00 0.00 0.00 24 1017.1
20260506170508 55 202 1.0 10.0 0.00 0.00 0.00 24 1017.1
20260506170005 54 217 3.0 8.0 0.00 0.00 0.00 26 1017.3
20260506165504 54 233 3.0 4.0 0.00 0.00 0.00 26 1017.3
20260506164959 54 257 1.0 8.0 0.00 0.00 0.00 25 1017.3
20260506164456 54 193 6.0 9.0 0.00 0.00 0.00 29 1017.4
20260506163954 53 201 2.0 6.0 0.00 0.00 0.00 30 1017.5
20260506163449 53 213 8.0 9.0 0.00 0.00 0.00 31 1017.5
20260506162944 53 243 3.0 7.0 0.00 0.00 0.00 36 1017.5
20260506162442 53 121 3.0 7.0 0.00 0.00 0.00 35 1017.5
20260506161939 51 233 2.0 3.0 0.00 0.00 0.00 37 1017.7
20260506161437 51 218 2.0 7.0 0.00 0.00 0.00 39 1017.9
20260506160934 50 91 0.0 0.0 0.00 0.00 0.00 40 1017.8
20260506160431 50 131 2.0 6.0 0.00 0.00 0.00 41 1018.1
20260506155929 50 108 1.0 4.0 0.00 0.00 0.00 41 1018.1
20260506155426 48 207 6.0 8.0 0.00 0.00 0.00 43 1018.2
20260506153548 46 203 2.0 4.0 0.00 0.00 0.00 45 1018.5
20260506153045 44 226 1.0 2.0 0.00 0.00 0.00 48 1018.8
20260506152542 44 160 0.0 6.0 0.00 0.00 0.00 47 1018.8
20260506152040 43 239 0.0 1.0 0.00 0.00 0.00 50 1018.9
20260506151538 42 252 0.0 2.0 0.00 0.00 0.00 50 1019.1
20260506151035 41 216 0.0 2.0 0.00 0.00 0.00 50 1018.8
20260506150531 41 195 0.0 4.0 0.00 0.00 0.00 51 1019.1
20260506150028 40 221 0.0 0.0 0.00 0.00 0.00 52 1019.2
20260506145525 40 209 0.0 1.0 0.00 0.00 0.00 50 1019.3
20260506145022 40 217 0.0 0.0 0.00 0.00 0.00 49 1019.4
20260506144519 38 274 0.0 0.0 0.00 0.00 0.00 50 1019.3
20260506144016 37 201 0.0 0.0 0.00 0.00 0.00 50 1019.3
20260506143514 36 210 0.0 0.0 0.00 0.00 0.00 51 1019.7
20260506143012 35 183 0.0 2.0 0.00 0.00 0.00 53 1019.7
20260506142509 35 198 0.0 2.0 0.00 0.00 0.00 54 1019.6
20260506142008 34 182 0.0 0.0 0.00 0.00 0.00 55 1019.7
20260506141505 33 183 2.0 3.0 0.00 0.00 0.00 56 1019.8
20260506141003 33 186 0.0 2.0 0.00 0.00 0.00 57 1019.7
20260506140500 33 204 0.0 0.0 0.00 0.00 0.00 58 1019.8
20260506135957 33 214 0.0 0.0 0.00 0.00 0.00 57 1019.8
20260506135454 32 198 0.0 0.0 0.00 0.00 0.00 57 1019.8
20260506134950 31 228 0.0 0.0 0.00 0.00 0.00 57 1019.7
20260506134446 30 230 0.0 0.0 0.00 0.00 0.00 57 1019.9
20260506133943 30 217 0.0 0.0 0.00 0.00 0.00 56 1019.9
20260506133440 29 210 0.0 0.0 0.00 0.00 0.00 57 1019.9
20260506132937 28 216 0.0 0.0 0.00 0.00 0.00 59 1019.8
20260506132434 28 219 0.0 0.0 0.00 0.00 0.00 59 1019.9
20260506131931 28 216 0.0 0.0 0.00 0.00 0.00 59 1019.9
20260506131428 28 221 0.0 0.0 0.00 0.00 0.00 59 1019.8
20260506130925 29 264 0.0 0.0 0.00 0.00 0.00 58 1019.8
20260506130421 27 264 0.0 0.0 0.00 0.00 0.00 59 1020.0
20260506125920 26 274 0.0 0.0 0.00 0.00 0.00 63 1020.1
20260506125417 25 283 0.0 0.0 0.00 0.00 0.00 63 1019.9
20260506124915 25 284 0.0 0.0 0.00 0.00 0.00 64 1020.0
20260506124412 24 285 0.0 0.0 0.00 0.00 0.00 65 1020.0
20260506123910 23 284 0.0 0.0 0.00 0.00 0.00 66 1020.1
20260506123408 22 271 0.0 0.0 0.00 0.00 0.00 68 1020.2
20260506122905 21 264 0.0 0.0 0.00 0.00 0.00 69 1020.2
20260506122402 20 264 0.0 0.0 0.00 0.00 0.00 71 1020.1
20260506121900 21 263 0.0 0.0 0.00 0.00 0.00 71 1020.2
20260506121357 21 243 0.0 0.0 0.00 0.00 0.00 75 1020.2
20260506120854 21 232 0.0 0.0 0.00 0.00 0.00 72 1020.2
20260506120352 21 232 0.0 0.0 0.00 0.00 0.00 69 1020.2
20260506115849 20 233 0.0 0.0 0.00 0.00 0.00 72 1020.2
20260506115347 21 232 0.0 0.0 0.00 0.00 0.00 71 1020.2
20260506114845 21 233 0.0 0.0 0.00 0.00 0.00 70 1020.3
20260506114342 21 232 0.0 0.0 0.00 0.00 0.00 69 1020.3
20260506113841 22 232 0.0 0.0 0.00 0.00 0.00 68 1020.4
20260506113338 22 232 0.0 0.0 0.00 0.00 0.00 67 1020.3
20260506112834 22 262 0.0 0.0 0.00 0.00 0.00 66 1020.5
20260506112331 23 268 0.0 0.0 0.00 0.00 0.00 66 1020.5
20260506111829 22 269 0.0 0.0 0.00 0.00 0.00 67 1020.4
20260506111327 23 269 0.0 0.0 0.00 0.00 0.00 65 1020.8
20260506110824 23 269 0.0 0.0 0.00 0.00 0.00 65 1020.8
20260506110321 23 269 0.0 0.0 0.00 0.00 0.00 66 1020.9
20260506105818 23 269 0.0 0.0 0.00 0.00 0.00 66 1020.9
20260506105314 23 269 0.0 0.0 0.00 0.00 0.00 65 1021.0
20260506104812 23 269 0.0 0.0 0.00 0.00 0.00 65 1020.9
20260506104310 23 269 0.0 0.0 0.00 0.00 0.00 65 1021.0
20260506103807 24 269 0.0 0.0 0.00 0.00 0.00 63 1021.0
20260506103304 23 269 0.0 0.0 0.00 0.00 0.00 64 1021.0
20260506102802 23 269 0.0 0.0 0.00 0.00 0.00 64 1021.2
20260506102259 24 269 0.0 0.0 0.00 0.00 0.00 63 1021.1
20260506101757 24 269 0.0 0.0 0.00 0.00 0.00 63 1021.1
20260506101252 23 270 0.0 0.0 0.00 0.00 0.00 64 1021.3
20260506100751 23 270 0.0 0.0 0.00 0.00 0.00 64 1021.3
20260506100249 23 270 0.0 0.0 0.00 0.00 0.00 63 1021.4
20260506095747 23 269 0.0 0.0 0.00 0.00 0.00 65 1021.6
20260506095243 23 267 0.0 0.0 0.00 0.00 0.00 63 1021.3
20260506094740 23 267 0.0 0.0 0.00 0.00 0.00 64 1021.3
20260506094238 23 267 0.0 0.0 0.00 0.00 0.00 64 1021.4
20260506093737 23 267 0.0 0.0 0.00 0.00 0.00 67 1021.4
20260506093233 22 267 0.0 0.0 0.00 0.00 0.00 68 1021.6
20260506092731 23 267 0.0 0.0 0.00 0.00 0.00 69 1021.5
20260506092229 23 267 0.0 0.0 0.00 0.00 0.00 65 1021.6
20260506091726 24 267 0.0 0.0 0.00 0.00 0.00 64 1021.7
20260506091223 24 267 0.0 0.0 0.00 0.00 0.00 62 1021.7
20260506090721 25 272 0.0 0.0 0.00 0.00 0.00 60 1022.0
20260506090218 25 273 0.0 0.0 0.00 0.00 0.00 59 1021.5
20260506085715 25 273 0.0 0.0 0.00 0.00 0.00 59 1021.5
20260506085211 25 272 0.0 0.0 0.00 0.00 0.00 60 1021.7
20260506084708 24 272 0.0 0.0 0.00 0.00 0.00 60 1021.7
20260506084204 24 271 0.0 0.0 0.00 0.00 0.00 60 1021.8
20260506083701 24 265 0.0 0.0 0.00 0.00 0.00 65 1021.7
20260506083159 24 236 0.0 0.0 0.00 0.00 0.00 65 1021.8
20260506082656 24 229 0.0 0.0 0.00 0.00 0.00 64 1021.8
20260506082156 24 227 0.0 0.0 0.00 0.00 0.00 62 1021.7
20260506081654 25 213 0.0 0.0 0.00 0.00 0.00 59 1022.1
20260506081152 29 306 0.0 0.0 0.00 0.00 0.00 53 1022.0
20260506080650 29 311 0.0 0.0 0.00 0.00 0.00 53 1021.8
20260506080146 29 312 0.0 0.0 0.00 0.00 0.00 53 1022.1
20260506073130 25 322 0.0 0.0 0.00 0.00 0.00 57 1022.3
20260506072626 25 293 0.0 0.0 0.00 0.00 0.00 58 1022.4
20260506072125 25 285 0.0 0.0 0.00 0.00 0.00 62 1022.6
20260506071622 27 272 0.0 0.0 0.00 0.00 0.00 61 1022.5
20260506071119 29 271 0.0 0.0 0.00 0.00 0.00 52 1022.4
20260506070616 30 259 0.0 0.0 0.00 0.00 0.00 52 1022.3
20260506070114 29 254 0.0 0.0 0.00 0.00 0.00 57 1022.3
20260506062050 32 225 0.0 0.0 0.00 0.00 0.00 51 1022.4
20260506061546 32 223 0.0 0.0 0.00 0.00 0.00 51 1022.5
20260506061044 33 221 0.0 0.0 0.00 0.00 0.00 47 1022.4
20260506060542 33 213 0.0 0.0 0.00 0.00 0.00 47 1022.5